Regional Weather Roundup
Issued by NWS

Home | Current Version | Previous Version | Text Only | Print | Product List | Glossary Off
Versions: 1 2 3 4 5 6 7 8 9 10 11 12 13 14 15 16 17 18 19 20 21 22 23 24 25 26 27 28 29 30 31 32 33 34 35 36 37 38 39 40 41 42 43 44 45 46 47 48 49 50

000
ASUS43 KOAX 261902
RWRNE

WEATHER ROUNDUP FOR NEBRASKA
NATIONAL WEATHER SERVICE OMAHA NE
200 PM CDT SUN MAR 26 2017

NOTES: SATELLITE DATA IS BEING USED TO AUGMENT CLOUD COVER ABOVE
       12000 FEET.
       "FAIR" INDICATES FEW OR NO CLOUDS BELOW 12,000 FEET WITH NO
       SIGNIFICANT WEATHER AND/OR OBSTRUCTIONS TO VISIBILITY.

  * THESE STATIONS DO NOT REPORT WEATHER SUCH AS RAIN...SNOW OR FOG.

NEZ001>004-019>022-054>056-262000-
NEBRASKA PANHANDLE

CITY           SKY/WX    TMP DP  RH WIND       PRES   REMARKS
SCOTTSBLUFF    PTSUNNY   55  34  45 N12G17    29.90F
ALLIANCE       CLOUDY    52  34  50 CALM      29.89F
CHADRON        CLOUDY    49  38  65 N15       29.93S
KIMBALL        CLOUDY    49  35  60 N12       29.91S
SIDNEY         LGT RAIN  47  36  65 E7        29.90F
$$

NEZ057>060-069>072-079>082-262000-
SOUTHWEST NEBRASKA

CITY           SKY/WX    TMP DP  RH WIND       PRES   REMARKS
NORTH PLATTE   PTSUNNY   48  40  73 CALM      29.89F
IMPERIAL       PTSUNNY   50  41  71 N6        29.89S
LEXINGTON      CLOUDY    46  40  81 SE5       29.91S
MCCOOK         CLOUDY    46  42  86 E7        29.89S
OGALLALA       CLOUDY    56  41  56 W9        29.88S
$$

NEZ005>010-023>029-035>040-094-262000-
NORTH CENTRAL NEBRASKA

CITY           SKY/WX    TMP DP  RH WIND       PRES   REMARKS
VALENTINE      CLOUDY    51  37  58 NE10      29.88F
AINSWORTH      PTSUNNY   50  41  72 E5        29.89F
BROKEN BOW     CLOUDY    52  41  66 CALM      29.88F
O`NEILL        CLOUDY    42  42 100 CALM      29.93R
ORD            CLOUDY    46  40  79 CALM      29.90F
THEDFORD       MOSUNNY   59  42  53 SE5       29.88F
$$

NEZ041-046>049-061>064-073>077-083>087-262000-
SOUTH CENTRAL NEBRASKA

CITY           SKY/WX    TMP DP  RH WIND       PRES   REMARKS
GRAND ISLAND   CLOUDY    48  43  82 N6        29.91F
AURORA         CLOUDY    46  44  91 N5        29.91S
HASTINGS       CLOUDY    49  43  80 NE3       29.92S
HEBRON         CLOUDY    46  42  84 CALM      29.93R
HOLDREGE       CLOUDY    46  41  83 CALM      29.91S
KEARNEY *      CLOUDY    46  41  81 N3        29.92S
YORK           CLOUDY    45  45 100 N7        29.92S
$$

NEZ011>018-030>034-042>045-262000-
NORTHEAST NEBRASKA

CITY           SKY/WX    TMP DP  RH WIND       PRES   REMARKS
NORFOLK        CLOUDY    44  39  82 NW6       29.92F
ALBION         CLOUDY    47  41  80 N6        29.92S
BLAIR          CLOUDY    45  40  83 W7        29.92S
FREMONT        CLOUDY    45  41  87 N3        29.93S
TEKAMAH        CLOUDY    46  39  76 NW7       29.93F
WAYNE          CLOUDY    43  42  97 N5        29.93F FOG
$$

NEZ050>053-065>068-078-088>093-262000-
SOUTHEAST NEBRASKA

CITY           SKY/WX    TMP DP  RH WIND       PRES   REMARKS
LINCOLN        CLOUDY    46  42  86 N7        29.94F
OMAHA EPPLEY   CLOUDY    47  40  76 NW7       29.92F
BEATRICE       CLOUDY    47  43  87 N6        29.92R
FALLS CITY     CLOUDY    47  42  83 N6        29.92F
NEBRASKA CITY  CLOUDY    44  42  93 N5        29.92F
PLATTSMOUTH    CLOUDY    45  39  79 N5        29.92S
$$

NEZ044-045-051>053-067-262000-
OMAHA AREA

CITY           SKY/WX    TMP DP  RH WIND       PRES   REMARKS
OMAHA EPPLEY   CLOUDY    47  40  76 NW7       29.92F
BLAIR          CLOUDY    45  40  83 W7        29.92S
FREMONT        CLOUDY    45  41  87 N3        29.93S
MILLARD        CLOUDY    47  41  80 NW6       29.93S
OFFUTT AFB     CLOUDY    46  40  78 N3        29.92F
PLATTSMOUTH    CLOUDY    45  39  79 N5        29.92S
WAHOO          CLOUDY    44  40  85 N7        29.93S
$$




USA.gov is the U.S. government's official web portal to all federal, state and local government web resources and services.